Terug naar catalogus

STARLINK-6142

ActiefCommunicatieVLEO
NORAD 57113·PAYLOAD·🇺🇸 United States

Gelanceerd Jun 23, 2023 vanaf Cape Canaveral Space Force Station

Loading…

Volgende Passages (komende 24 uur)

TLE

VersSource: CelesTrak SupGP

Epoch: Sep 15, 2026, 01:52 UTC

1 57113C 23090N   26258.07826389  .00021170  00000+0  76666-3 0  2589
2 57113  43.0005 291.7719 0001565 259.8360 310.9770 15.27572389    14

Volg STARLINK-6142 in realtime met AllMySat

Download on the App Store